WJA2040 CYYJ-MMPR

Flight info

Callsign WJA2040
Flight time N/A
Altitude 36000
Route CYYJ MB KELNA WANTA LTJ KOATA NEER KOPRR BXK35 UKSEL KEDIX PR660 PR669 MUVBA PR407 PR405 PR404 MMPR
Aircraft B737/M-V/N

Departure

Time 2026-05-04 20:51
Airport Victoria International Airport (CYYJ)

Arrival

Time N/A
Airport Puerto Vallarta International Airport (MMPR)
Time Latitude Longitude Altitude Speed Heading
2026-05-04 20:41 48.64133 -123.42902 52 ft 2 kts 186°
2026-05-04 20:41 48.64148 -123.42899 50 ft 2 kts 186°
2026-05-04 20:41 48.64159 -123.42897 57 ft 2 kts 186°
2026-05-04 20:42 48.64167 -123.42896 52 ft 0 kts 186°
2026-05-04 20:46 48.64158 -123.42867 57 ft 6 kts 89°
2026-05-04 20:47 48.64156 -123.42807 57 ft 7 kts 98°
2026-05-04 20:47 48.64142 -123.42691 59 ft 15 kts 99°
2026-05-04 20:47 48.64136 -123.42509 62 ft 22 kts 73°
2026-05-04 20:47 48.64267 -123.42399 60 ft 26 kts 11°
2026-05-04 20:48 48.64409 -123.42341 62 ft 24 kts 17°
2026-05-04 20:48 48.64552 -123.42279 59 ft 19 kts 16°
2026-05-04 20:48 48.64664 -123.42216 63 ft 18 kts 34°
2026-05-04 20:48 48.64709 -123.42088 66 ft 17 kts 102°
2026-05-04 20:49 48.64681 -123.41929 61 ft 17 kts 105°
2026-05-04 20:49 48.64649 -123.41765 67 ft 16 kts 104°
2026-05-04 20:49 48.64621 -123.41612 67 ft 16 kts 105°
2026-05-04 20:49 48.64594 -123.41466 61 ft 15 kts 105°
2026-05-04 20:50 48.64572 -123.41336 65 ft 14 kts 97°
2026-05-04 20:50 48.64572 -123.41290 61 ft 0 kts 85°
2026-05-04 20:50 48.64574 -123.41276 64 ft 8 kts 70°
2026-05-04 20:50 48.64665 -123.41281 63 ft 23 kts 309°
2026-05-04 20:51 48.64740 -123.41619 68 ft 72 kts 286°
2026-05-04 20:51 48.64932 -123.42609 63 ft 146 kts 286°
2026-05-04 20:51 48.65212 -123.44065 303 ft 185 kts 286°
2026-05-04 20:51 48.65491 -123.45459 844 ft 202 kts 287°
2026-05-04 20:52 48.65921 -123.47480 1596 ft 214 kts 287°
2026-05-04 20:52 48.66220 -123.48994 2122 ft 214 kts 286°
2026-05-04 20:52 48.66614 -123.51062 2796 ft 215 kts 286°
2026-05-04 20:52 48.67012 -123.53123 3443 ft 219 kts 286°
2026-05-04 20:53 48.67208 -123.55458 4103 ft 233 kts 262°
2026-05-04 20:53 48.66597 -123.57732 4323 ft 272 kts 236°
2026-05-04 20:53 48.65162 -123.59799 3148 ft 344 kts 214°
2026-05-04 20:53 48.62792 -123.60968 2962 ft 335 kts 182°
2026-05-04 20:54 48.60828 -123.60797 4989 ft 291 kts 173°
2026-05-04 20:54 48.59075 -123.60761 6118 ft 290 kts 193°
2026-05-04 20:54 48.57223 -123.61895 7141 ft 285 kts 208°
2026-05-04 20:54 48.55563 -123.63179 8070 ft 284 kts 207°
2026-05-04 20:55 48.53876 -123.64377 9066 ft 281 kts 204°
2026-05-04 20:55 48.52081 -123.65461 10052 ft 274 kts 202°
2026-05-04 20:55 48.50446 -123.66384 10920 ft 266 kts 201°
2026-05-04 20:55 48.48836 -123.67271 11860 ft 257 kts 201°
2026-05-04 20:56 48.47166 -123.68153 12773 ft 248 kts 200°
2026-05-04 20:56 48.45630 -123.68957 13367 ft 255 kts 200°
2026-05-04 20:56 48.43941 -123.69840 13164 ft 292 kts 201°
2026-05-04 20:56 48.41924 -123.70896 13175 ft 320 kts 200°
2026-05-04 20:57 48.39870 -123.71963 13206 ft 347 kts 200°
2026-05-04 20:57 48.37871 -123.72995 13214 ft 371 kts 200°
2026-05-04 20:57 48.35825 -123.74064 13157 ft 394 kts 200°
2026-05-04 20:57 48.33262 -123.75375 13071 ft 416 kts 199°
2026-05-04 20:58 48.30829 -123.76598 13263 ft 425 kts 199°
2026-05-04 20:58 48.27986 -123.78028 13537 ft 431 kts 199°
2026-05-04 20:58 48.25278 -123.79398 13779 ft 431 kts 199°
2026-05-04 20:58 48.22549 -123.80732 13994 ft 433 kts 196°
2026-05-04 20:59 48.19572 -123.81243 14175 ft 435 kts 174°
2026-05-04 20:59 48.16823 -123.80139 14414 ft 436 kts 154°
2026-05-04 20:59 48.14417 -123.77865 14665 ft 436 kts 139°
2026-05-04 20:59 48.12189 -123.74774 14946 ft 437 kts 134°
2026-05-04 21:00 48.10509 -123.72225 15361 ft 433 kts 133°
2026-05-04 21:00 48.08477 -123.69157 15946 ft 430 kts 134°
2026-05-04 21:00 48.06281 -123.66104 16580 ft 428 kts 137°
2026-05-04 21:00 48.04193 -123.63398 17192 ft 427 kts 137°
2026-05-04 21:01 48.02104 -123.60747 17783 ft 427 kts 138°
2026-05-04 21:01 47.99838 -123.57861 18506 ft 421 kts 137°
2026-05-04 21:01 47.97772 -123.55199 19129 ft 417 kts 137°
2026-05-04 21:01 47.95739 -123.52547 19776 ft 412 kts 136°
2026-05-04 21:02 47.93559 -123.49679 20524 ft 407 kts 136°
2026-05-04 21:02 47.91551 -123.47020 21205 ft 403 kts 135°
2026-05-04 21:02 47.89577 -123.44400 21899 ft 398 kts 135°
2026-05-04 21:02 47.87528 -123.41679 22702 ft 393 kts 135°
2026-05-04 21:03 47.85773 -123.39350 23374 ft 389 kts 135°
2026-05-04 21:03 47.84053 -123.37070 23905 ft 384 kts 135°
2026-05-04 21:03 47.82309 -123.34760 24498 ft 375 kts 135°
2026-05-04 21:03 47.80467 -123.32326 25109 ft 366 kts 135°
2026-05-04 21:04 47.78684 -123.29975 25760 ft 355 kts 135°
2026-05-04 21:04 47.76888 -123.27607 26355 ft 345 kts 134°
2026-05-04 21:04 47.75172 -123.25341 26474 ft 353 kts 134°
2026-05-04 21:04 47.73373 -123.22960 26398 ft 369 kts 135°
2026-05-04 21:05 47.71540 -123.20535 26374 ft 381 kts 135°
2026-05-04 21:05 47.69906 -123.18379 26491 ft 388 kts 135°
2026-05-04 21:05 47.68295 -123.16259 26566 ft 396 kts 135°
2026-05-04 21:05 47.66404 -123.13775 26655 ft 405 kts 135°
2026-05-04 21:06 47.64426 -123.11183 26705 ft 413 kts 135°
2026-05-04 21:06 47.62372 -123.08494 26818 ft 421 kts 135°
2026-05-04 21:06 47.60149 -123.05587 26906 ft 430 kts 135°
2026-05-04 21:06 47.58035 -123.02826 26953 ft 438 kts 135°
2026-05-04 21:07 47.56011 -123.00186 27023 ft 444 kts 136°
2026-05-04 21:07 47.53642 -122.97100 27108 ft 452 kts 136°
2026-05-04 21:07 47.51294 -122.94044 27169 ft 459 kts 136°
2026-05-04 21:07 47.48883 -122.90908 27227 ft 465 kts 136°